Home > Weather > Oklahoma City > Past weeks

Flag for U.S.A. Weather for the Past 2 Weeks in Oklahoma City, Oklahoma, U.S.A.

Now
49 °F

Clear.


Feels Like: 44 °F
Forecast: 28 / 53 °F
Wind: 14 mph from Northeast

Location: Will Rogers World Airport

Current Time: Feb 12, 2016 at 7:37:23 PM

Latest Report: Feb 12, 2016 at 6:52 PM


Visibility: 10 mi

Pressure: 30.38 "Hg

Humidity: 48%

Dew point: 30 °F

Location of Oklahoma CityLocation

Historic Weather in Oklahoma City — Graph

°F

Oklahoma City Temperature Yesterday

Maximum temperature yesterday: 62 °F (at 2:52 PM)
Minimum temperature yesterday: 41 °F (at 5:52 AM)
Average temperature yesterday: 49 °F

High & Low Weather Summary for the Past Weeks

 TemperatureHumidityPressure
High75 °F (Jan 29, 1:52 PM)96% (Feb 2, 1:52 AM)30.46 "Hg (Feb 2, 1:52 AM)
Low20 °F (Feb 4, 5:52 AM)16% (Feb 8, 3:52 PM)29.43 "Hg (Feb 1, 9:52 PM)
Average45 °F53%30.06 "Hg
* Reported Jan 28 5:52 PM — Feb 12 5:52 PM, Oklahoma City, Weather by CustomWeather, © 2016

Note: Actual official high and low records may vary slightly from our data, if they occured in-between our weather recording intervals... More about our weather records

Advertising

Oklahoma City Weather History for the Previous 24 Hours

 ConditionsComfort  
Time TempWeatherWind HumidityBarometerVisibility
5:52 PM
Fri, Feb 12
53 °FSunny.13 mph43%30.37 "Hg10 mi
4:52 PM57 °FSunny.13 mph39%30.35 "Hg10 mi
3:52 PM59 °FSunny.12 mph36%30.34 "Hg10 mi
2:52 PM60 °FPassing clouds.15 mph36%30.34 "Hg10 mi
1:52 PM59 °FPassing clouds.12 mph38%30.34 "Hg10 mi
12:52 PM57 °FScattered clouds.13 mph42%30.36 "Hg10 mi
11:52 AM56 °FScattered clouds.12 mph44%30.36 "Hg10 mi
10:52 AM52 °FScattered clouds.13 mph49%30.35 "Hg10 mi
9:52 AM48 °FScattered clouds.8 mph59%30.34 "Hg10 mi
8:52 AM42 °FScattered clouds.6 mph73%30.31 "Hg8 mi
7:52 AM32 °FPassing clouds.No wind88%30.29 "Hg9 mi
6:52 AM35 °FPassing clouds.7 mph85%30.27 "Hg10 mi
5:52 AM35 °FPassing clouds.8 mph85%30.24 "Hg10 mi
4:52 AM37 °FPassing clouds.No wind82%30.20 "Hg10 mi
3:52 AM37 °FPassing clouds.7 mph86%30.20 "Hg10 mi
2:52 AM37 °FPassing clouds.8 mph82%30.19 "Hg10 mi
1:52 AM39 °FPassing clouds.6 mph73%30.18 "Hg10 mi
12:52 AM40 °FPassing clouds.No wind73%30.17 "Hg10 mi
11:52 PM
Thu, Feb 11
41 °FPassing clouds.3 mph70%30.16 "Hg10 mi
10:52 PM43 °FClear.7 mph65%30.18 "Hg10 mi
9:52 PM45 °FClear.6 mph60%30.17 "Hg10 mi
8:52 PM46 °FPassing clouds.6 mph56%30.16 "Hg10 mi
7:52 PM49 °FPassing clouds.6 mph50%30.16 "Hg10 mi
Weather by CustomWeather, © 2016

See weather overviewHow to use our weather pages